{"data":{"norad_id":66598,"epoch":"2026-09-20T08:52:05.834208Z","epoch_age_seconds":98280,"freshness":"FRESH","line1":"1 66598U 25270L   26263.36951197  .00018249  00000+0  67089-3 0  9996","line2":"2 66598  43.0039  36.3821 0002895 282.9730  77.0798 15.27585361 47331","mean_motion":15.27585361,"eccentricity":0.0002895,"inclination_deg":43.0039,"raan_deg":36.3821,"arg_perigee_deg":282.973,"mean_anomaly_deg":77.0798,"bstar":0.00067089,"rev_number":4733,"period_min":94.266417888251,"perigee_km":481.04673459645,"apogee_km":485.01935205153,"semimajor_km":6861.170043324,"source":"CELESTRAK","updated_at":"2026-09-21T09:00:35.977826Z"}}